{"data":{"norad_id":68827,"intl_designator":"2026-090B","name":"COSMOS 2616","alt_names":[],"object_type":"PAYLOAD","status":"ACTIVE","operator":null,"country":"CIS","launch_date":"2026-04-23","launch_site_code":"PLMSC","launch_vehicle":null,"mission":null,"orbit_class":"UNKNOWN","rcs_meters":null,"size_class":null,"mass_kg":null,"dimensions":null,"purposes":[],"wikipedia_slug":null,"has_3d_model":false,"image_url":null,"decayed_at":null,"tle_current":{"epoch":"2026-05-25T04:21:55.142208Z","epoch_age_seconds":59047,"freshness":"FRESH","line1":"1 68827U 26090B   26145.18188822  .00033566  00000+0  16777-3 0  9997","line2":"2 68827  96.6463  63.6900 0017897 122.4157 237.8847 15.81518865  5030","mean_motion":15.81518865,"eccentricity":0.0017897,"inclination_deg":96.6463,"raan_deg":63.69,"arg_perigee_deg":122.4157,"mean_anomaly_deg":237.8847,"bstar":0.00016777,"rev_number":503,"period_min":91.051711861812,"perigee_km":314.14608837296,"apogee_km":338.14339443814,"semimajor_km":6704.2817414055,"source":"CELESTRAK","updated_at":"2026-05-25T13:38:08.123295Z"}}}